Tracking 29892 objects as of 21-Nov-2024
HD Live streaming from Space Station
objects crossing your sky now

STARLINK-6084

Track STARLINK-6084 now!
10-day predictions
STARLINK-6084 is classified as:


NORAD ID: 56111
Int'l Code: 2023-046U
Perigee: 565.3 km
Apogee: 567.1 km
Inclination: 43.0 °
Period: 95.8 minutes
Semi major axis: 6937 km
RCS: Unknown
Launch date: March 29, 2023
Source: United States (US)
Launch site: AIR FORCE EASTERN TEST RANGE (AFETR)
Your satellite tracking list
Your tracking list is empty




NASA's NSSDC Master Catalog

Two Line Element Set (TLE):
1 56111U 23046U   24326.08525966 -.00000392  00000-0 -13931-4 0  9994
2 56111  43.0029 212.0363 0001294 261.4872  98.5824 15.02537012 91368
Source of the keplerian elements: AFSPC